Location: Eppenbrunn
(49.1158°N, 7.5601°E)
Time: 22:00:23
(UTC+00:00)

Terra - Pass Details

Date: 09 April 2020
Orbit: 701 x 703 km, 98.2° (Epoch: 24 May)

Event Time Altitude Azimuth Distance (km) Brightness Sun altitude
Exits shadow 22:08:22 34° 280° (W) 1,156 3.1 -30.1°
Drops below altitude 10° 22:12:10 10° 330° (NNW) 2,183 5.3 -30.3°
Sets 22:14:36 0° 339° (NNW) 3,106 6.3 -30.5°
